logo tempoitalia

Diretta Meteo Chiclayo, Perulunedì 31 agosto ore 00:00

Mappa
Sereno 22 °C Sereno 24 Ore: T.min 21 T.max 27
Ponente Sud Km/h 22.2 Punto di rugiada: 19 °C Umidità: 83% Visibilità: 10 Km
Il sole sorge alle: 06:20 Il sole tramonta alle: 18:18
31 Agosto 2026 00:00 tempo osservato: Sereno Sereno 22 83 1013 vento: Nord S 22.2
30 Agosto 2026 23:00 tempo osservato: Sereno Sereno 22 83 1013 vento: Nord S 25.9
30 Agosto 2026 22:00 tempo osservato: Sereno Sereno 22 83 1013 vento: Nord S 22.2
30 Agosto 2026 21:00 tempo osservato: Sereno Sereno 23 78 1013 vento: Nord S 25.9
30 Agosto 2026 20:00 tempo osservato: Sereno Sereno 23 78 1012 vento: Nord S 22.2
30 Agosto 2026 19:00 tempo osservato: Sereno Sereno 23 78 1012 vento: Nord S 22.2
30 Agosto 2026 18:00 tempo osservato: Poco Nuvoloso Poco Nuvoloso 24 73 1011 vento: Nord S 27.8
30 Agosto 2026 17:00 tempo osservato: Poco Nuvoloso Poco Nuvoloso 25 69 1011 vento: Nord S 31.5
30 Agosto 2026 16:00 tempo osservato: Sereno Sereno 26 65 1010 vento: Nord S 31.5
30 Agosto 2026 15:00 tempo osservato: Sereno Sereno 27 57 1011 vento: Nord S 27.8
30 Agosto 2026 14:00 tempo osservato: Sereno Sereno 27 65 1011 vento: Nord S 25.9
30 Agosto 2026 13:00 tempo osservato: Sereno Sereno 27 57 1012 vento: Nord S 24
30 Agosto 2026 12:00 tempo osservato: Sereno Sereno 27 57 1013 vento: Nord S 14.8
30 Agosto 2026 11:00 tempo osservato: Sereno Sereno 27 61 1013 vento: Nord S 13
30 Agosto 2026 10:00 tempo osservato: Sereno Sereno 25 65 1014 vento: Nord N 5.5
30 Agosto 2026 09:00 tempo osservato: Sereno Sereno 24 69 1014 vento: Nord S 14.8
30 Agosto 2026 08:00 tempo osservato: Sereno Sereno 22 78 1014 vento: Nord S 18.5
30 Agosto 2026 07:00 tempo osservato: Sereno Sereno 21 82 1013 vento: Nord S 14.8
30 Agosto 2026 06:00 tempo osservato: Sereno Sereno 21 82 1013 vento: Nord S 14.8
30 Agosto 2026 05:00 tempo osservato: Sereno Sereno 21 82 1012 vento: Nord S 16.7
30 Agosto 2026 04:00 tempo osservato: Sereno Sereno 22 78 1012 vento: Nord S 14.8
30 Agosto 2026 03:00 tempo osservato: Sereno Sereno 22 78 1012 vento: Nord S 16.7
30 Agosto 2026 02:00 tempo osservato: Sereno Sereno 22 78 1013 vento: Nord S 14.8
30 Agosto 2026 01:00 tempo osservato: Sereno Sereno 22 78 1013 vento: Nord S 16.7